Regional Weather Roundup
Issued by NWS

Home | Current Version | Previous Version | Text Only | Print | Product List | Glossary On
Versions: 1 2 3 4 5 6 7 8 9 10 11 12 13 14 15 16 17 18 19 20 21 22 23 24 25 26 27 28 29 30 31 32 33 34 35 36 37 38 39 40 41 42 43 44 45 46 47 48 49 50
000
ASUS43 KLMK 182210
RWRKY
KENTUCKY REGIONAL WEATHER ROUNDUP
NATIONAL WEATHER SERVICE LOUISVILLE KY
500 PM EST THU DEC 18 2014

NOTE "FAIR" INDICATES FEW OR NO CLOUDS BELOW 12,000 FEET
WITH NO SIGNIFICANT WEATHER AND/OR OBSTRUCTIONS TO VISIBILITY.

KYZ001>023-026-027-061>063-070>075-182300-
WESTERN AND SOUTH CENTRAL KENTUCKY

CITY           SKY/WX    TMP DP  RH WIND       PRES   REMARKS
PADUCAH        CLOUDY    36  31  82 NE5       30.22S WCI  32
HENDERSON      CLOUDY    34  25  69 NW3       30.24S
OWENSBORO      CLOUDY    34  27  76 VRB6      30.25R WCI  29
HOPKINSVILLE   CLOUDY    35  29  79 NE3       30.22R
BOWLING GREEN  CLOUDY    35  26  69 CALM      30.22F
GLASGOW        CLOUDY    34  27  75 CALM      30.21F
$$

KYZ024-025-028>034-038-045-046-053-182300-
NORTH CENTRAL KENTUCKY

CITY           SKY/WX    TMP DP  RH WIND       PRES   REMARKS
LOUISVILLE/SDF CLOUDY    33  24  69 CALM      30.23R
LOUISVILLE/LOU CLOUDY    33  23  66 NW3       30.24R
FORT KNOX      CLOUDY    32  25  73 CALM      30.20S
$$

KYZ035>037-039>044-047>052-055>060-089>105-182300-
NORTHEAST KENTUCKY

CITY           SKY/WX    TMP DP  RH WIND       PRES   REMARKS
LEXINGTON      CLOUDY    31  24  75 CALM      30.20S
COVINGTON      CLOUDY    30  19  63 CALM      30.21S
FRANKFORT      CLOUDY    31  23  72 CALM      30.20S
$$

KYZ054-064>069-076>088-106>120-182300-
SOUTHEAST KENTUCKY

CITY           SKY/WX    TMP DP  RH WIND       PRES   REMARKS
JACKSON        CLOUDY    34  24  67 CALM      30.16F
LONDON         CLOUDY    36  25  64 CALM      30.17S
SOMERSET       CLOUDY    34  27  75 CALM      30.21S
MIDDLESBORO    CLOUDY    39  28  66 NW3       30.17S
MONTICELLO     CLOUDY    36  28  73 CALM      30.23R
$$




USA.gov is the U.S. government's official web portal to all federal, state and local government web resources and services.